Location: Quedlinburg
(51.7921°N, 11.1414°E)
Time: 23:53:05
(UTC+01:00)

EO-79 - Visible Passes

Search period start: 13 March 2026 00:00
Search period end: 23 March 2026 00:00
Orbit: 510 x 522 km, 98.1° (Epoch: 13 March)

Date Brightness Start Highest point End Pass type
(mag) Time Alt. Az. Time Alt. Az. Time Alt. Az.
13 Mar ? 18:50:59 10° W 18:51:29 10° W 18:51:59 10° W visible
16 Mar ? 05:44:11 10° NE 05:47:19 24° E 05:50:25 10° SSE visible
17 Mar ? 05:29:50 10° NE 05:32:24 17° E 05:34:58 10° SE visible
18 Mar ? 05:15:48 10° ENE 05:17:27 12° E 05:19:04 10° ESE visible
